User: anonymous   Login
Location: Lawrence
(38.9720°N, 95.2350°W)
Time: 18:34:24
(UTC-06:00)
Language:

ALOS - Orbit

View from above orbital plane
View from above orbital plane
View from above satellite
View from above satellite

Ground track
Ground track

The orbit data is extracted from the following two-line orbital elements,

1 28931U 06002A   14352.22091485  .00001645  00000-0  34039-3 0  1346
2 28931 097.9606 043.6478 0000814 033.5435 326.5819 14.61543911474206
Epoch (UTC): 18 December 2014 05:18:07
Eccentricity: 0.0000814
inclination: 97.9606°
perigee height: 687 km
apogee height: 689 km
right ascension of ascending node: 43.6478°
argument of perigee: 33.5435°
revolutions per day: 14.61543911
mean anomaly at epoch: 326.5819°
orbit number at epoch: 47420

The dashed part of the orbit path shows where the satellite is in the earth's shadow,  

DLR